sat.trackr.live / text

‹ back to catalog

STARLINK-31518

NORAD 59219 · 2024-046U

PAYLOAD ACTIVE UNKNOWN

§ Identity

Operator
Country
US
Launch date
2024-03-11
Launch site
AFWTR
Launch vehicle
Mass (kg)
RCS (m²)

Purposes: comms

External: N2YO · Heavens-Above · Gunter

§ Orbital elements

Epoch: 2026-09-20T15:39:34.416288Z

Period
93.85 min
Inclination
53.1611°
Eccentricity
0.0002090
Mean motion
15.34398396 rev/d
Perigee alt
461.3 km
Apogee alt
464.1 km
Semi-major
6,840.8 km
B*
3.7036e-5
RAAN
325.1870°
Arg perigee
91.1755°
Mean anomaly
268.9487°
Rev number
14,295

§ Raw data

STARLINK-315181 59219U 24046U   26263.65248167  .00000875  00000+0  37036-4 0  99922 59219  53.1611 325.1870 0002090  91.1755 268.9487 15.34398396142956

JSON: /api/v1/satellites/59219 · /tle

For live sub-satellite position, see the globe view (requires WebGL).

§ Visibility from observer

Set your observer location to see the next 7 days of passes ≥ 10°. The values pass through the URL so the page stays shareable.

No JS? Fill the form by hand. The geolocation button needs JavaScript.